sat.trackr.live / text

‹ back to catalog

STARLINK-31870

NORAD 59787 · 2024-093F

PAYLOAD ACTIVE UNKNOWN

§ Identity

Operator
Country
US
Launch date
2024-05-18
Launch site
AFETR
Launch vehicle
Mass (kg)
RCS (m²)

Purposes: comms

External: N2YO · Heavens-Above · Gunter

§ Orbital elements

Epoch: 2026-05-25T00:29:08.451744Z

Period
94.27 min
Inclination
43.0020°
Eccentricity
0.0000812
Mean motion
15.27577058 rev/d
Perigee alt
482.5 km
Apogee alt
483.6 km
Semi-major
6,861.2 km
B*
1.2575e-5
RAAN
137.4408°
Arg perigee
279.4822°
Mean anomaly
80.5938°
Rev number
11,437

§ Raw data

STARLINK-318701 59787U 24093F   26145.02023671  .00000084  00000+0  12575-4 0  99982 59787  43.0020 137.4408 0000812 279.4822  80.5938 15.27577058114375

JSON: /api/v1/satellites/59787 · /tle

For live sub-satellite position, see the globe view (requires WebGL).

§ Visibility from observer

Set your observer location to see the next 7 days of passes ≥ 10°. The values pass through the URL so the page stays shareable.

No JS? Fill the form by hand. The geolocation button needs JavaScript.